SQ6RR-12 Weather Reports


time (UTC)temp
C
wind
direction
speed
KPH
gust
KPH
rain 1hr
cm
rain 24hr
cm
rain mn
cm
humidity
%
barometer
mb
20260902120917 21 0 0.0 0.0 0.00 0.00 0.00 97 1022.1
20260902120442 20 0 0.0 0.0 0.00 0.00 0.00 10 1022.1
20260902120010 20 0 0.0 0.0 0.00 0.00 0.00 10 1022.1
20260902115535 20 0 0.0 0.0 0.00 0.00 0.00 97 1022.1
20260902115103 20 0 0.0 0.0 0.00 0.00 0.00 97 1022.1
20260902114641 20 0 0.0 0.0 0.00 0.00 0.00 10 1022.2
20260902114214 20 0 0.0 0.0 0.00 0.00 0.00 10 1022.2
20260902113722 20 0 0.0 0.0 0.00 0.00 0.00 10 1022.2
20260902113254 20 0 0.0 0.0 0.00 0.00 0.00 10 1022.2
20260902112832 20 0 0.0 0.0 0.00 0.00 0.00 10 1022.2
20260902112411 19 0 0.0 0.0 0.00 0.00 0.00 10 1022.2
20260902111939 20 0 0.0 0.0 0.00 0.00 0.00 10 1022.3
20260902111534 20 0 0.0 0.0 0.00 0.00 0.00 10 1022.2
20260902111047 20 0 0.0 0.0 0.00 0.00 0.00 10 1022.2
20260902110627 20 0 0.0 0.0 0.00 0.00 0.00 96 1022.3
20260902110211 20 0 0.0 0.0 0.00 0.00 0.00 95 1022.3
20260902105741 21 0 0.0 0.0 0.00 0.00 0.00 87 1022.3
20260902105257 22 0 0.0 0.0 0.00 0.00 0.00 81 1022.3
20260902104837 23 0 0.0 0.0 0.00 0.00 0.00 67 1022.3
20260902104406 23 0 0.0 0.0 0.00 0.00 0.00 65 1022.3
20260902103922 24 0 0.0 0.0 0.00 0.00 0.00 64 1022.4
20260902103455 24 0 0.0 0.0 0.00 0.00 0.00 63 1022.4
20260902103017 23 0 0.0 0.0 0.00 0.00 0.00 70 1022.3
20260902102547 22 0 0.0 0.0 0.00 0.00 0.00 79 1022.3
20260902102107 22 0 0.0 0.0 0.00 0.00 0.00 73 1022.5
20260902101637 22 0 0.0 0.0 0.00 0.00 0.00 77 1022.5
20260902101202 22 0 0.0 0.0 0.00 0.00 0.00 69 1022.6
20260902100752 23 0 0.0 0.0 0.00 0.00 0.00 74 1022.6
20260902100341 22 0 0.0 0.0 0.00 0.00 0.00 75 1022.5
20260902095857 23 0 0.0 0.0 0.00 0.00 0.00 72 1022.6
20260902095437 23 0 0.0 0.0 0.00 0.00 0.00 74 1022.6
20260902095007 22 0 0.0 0.0 0.00 0.00 0.00 77 1022.6
20260902094515 22 0 0.0 0.0 0.00 0.00 0.00 79 1022.7
20260902094047 23 0 0.0 0.0 0.00 0.00 0.00 75 1022.7
20260902093634 23 0 0.0 0.0 0.00 0.00 0.00 79 1022.6
20260902093159 23 0 0.0 0.0 0.00 0.00 0.00 76 1022.7
20260902092732 22 0 0.0 0.0 0.00 0.00 0.00 79 1022.7
20260902092309 23 0 0.0 0.0 0.00 0.00 0.00 72 1022.7
20260902091844 23 0 0.0 0.0 0.00 0.00 0.00 78 1022.7
20260902091424 23 0 0.0 0.0 0.00 0.00 0.00 80 1022.7
20260902090957 23 0 0.0 0.0 0.00 0.00 0.00 87 1022.8
20260902090517 22 0 0.0 0.0 0.00 0.00 0.00 86 1022.8
20260902090047 22 0 0.0 0.0 0.00 0.00 0.00 80 1022.8
20260902085605 22 0 0.0 0.0 0.00 0.00 0.00 86 1022.8
20260902085137 22 0 0.0 0.0 0.00 0.00 0.00 88 1022.8
20260902084720 22 0 0.0 0.0 0.00 0.00 0.00 83 1022.9
20260902084230 21 0 0.0 0.0 0.00 0.00 0.00 88 1022.9
20260902083747 21 0 0.0 0.0 0.00 0.00 0.00 86 1023.0
20260902083311 21 0 0.0 0.0 0.00 0.00 0.00 87 1023.0
20260902082847 22 0 0.0 0.0 0.00 0.00 0.00 92 1022.9
20260902082417 21 0 0.0 0.0 0.00 0.00 0.00 91 1023.0
20260902081947 22 0 0.0 0.0 0.00 0.00 0.00 90 1023.0
20260902081517 22 0 0.0 0.0 0.00 0.00 0.00 96 1023.0
20260902081042 21 0 0.0 0.0 0.00 0.00 0.00 10 1023.0
20260902080634 21 0 0.0 0.0 0.00 0.00 0.00 10 1023.1
20260902080222 21 0 0.0 0.0 0.00 0.00 0.00 10 1023.0
20260902075752 21 0 0.0 0.0 0.00 0.00 0.00 10 1023.0
20260902075337 20 0 0.0 0.0 0.00 0.00 0.00 10 1023.1
20260902074855 20 0 0.0 0.0 0.00 0.00 0.00 10 1023.0
20260902074451 20 0 0.0 0.0 0.00 0.00 0.00 10 1023.1
20260902074022 18 0 0.0 0.0 0.00 0.00 0.00 10 1023.1
20260902073552 17 0 0.0 0.0 0.00 0.00 0.00 10 1023.0
20260902073123 16 0 0.0 0.0 0.00 0.00 0.00 10 1023.0
20260902072702 16 0 0.0 0.0 0.00 0.00 0.00 10 1023.0
20260902072217 16 0 0.0 0.0 0.00 0.00 0.00 10 1022.9
20260902071757 16 0 0.0 0.0 0.00 0.00 0.00 10 1022.9
20260902071329 16 0 0.0 0.0 0.00 0.00 0.00 10 1022.9
20260902070900 16 0 0.0 0.0 0.00 0.00 0.00 10 1022.8
20260902070442 16 0 0.0 0.0 0.00 0.00 0.00 10 1022.7
20260902065958 16 0 0.0 0.0 0.00 0.00 0.00 10 1022.8
20260902065547 16 0 0.0 0.0 0.00 0.00 0.00 10 1022.7
20260902065057 16 0 0.0 0.0 0.00 0.00 0.00 10 1022.8
20260902064624 15 0 0.0 0.0 0.00 0.00 0.00 10 1022.7
20260902064151 14 0 0.0 0.0 0.00 0.00 0.00 10 1022.7
20260902063717 14 0 0.0 0.0 0.00 0.00 0.00 10 1022.7
20260902063231 14 0 0.0 0.0 0.00 0.00 0.00 10 1022.7
20260902062747 13 0 0.0 0.0 0.00 0.00 0.00 10 1022.8
20260902062322 13 0 0.0 0.0 0.00 0.00 0.00 10 1022.8
20260902061857 13 0 0.0 0.0 0.00 0.00 0.00 10 1022.8
20260902061432 13 0 0.0 0.0 0.00 0.00 0.00 10 1022.7
20260902061005 13 0 0.0 0.0 0.00 0.00 0.00 10 1022.7
20260902060524 13 0 0.0 0.0 0.00 0.00 0.00 10 1022.7
20260902060057 13 0 0.0 0.0 0.00 0.00 0.00 10 1022.5
20260902055627 13 0 0.0 0.0 0.00 0.00 0.00 10 1022.6
20260902055151 13 0 0.0 0.0 0.00 0.00 0.00 10 1022.6
20260902054707 13 0 0.0 0.0 0.00 0.00 0.00 10 1022.6
20260902054247 13 0 0.0 0.0 0.00 0.00 0.00 10 1022.5
20260902053807 13 0 0.0 0.0 0.00 0.00 0.00 10 1022.4
20260902053322 12 0 0.0 0.0 0.00 0.00 0.00 10 1022.3
20260902052852 12 0 0.0 0.0 0.00 0.00 0.00 10 1022.4
20260902052425 12 0 0.0 0.0 0.00 0.00 0.00 10 1022.4
20260902051944 11 0 0.0 0.0 0.00 0.00 0.00 10 1022.4
20260902051505 11 0 0.0 0.0 0.00 0.00 0.00 10 1022.3
20260902051037 11 0 0.0 0.0 0.00 0.00 0.00 10 1022.3
20260902050612 11 0 0.0 0.0 0.00 0.00 0.00 10 1022.3
20260902050154 11 0 0.0 0.0 0.00 0.00 0.00 10 1022.2
20260902045722 11 0 0.0 0.0 0.00 0.00 0.00 10 1022.2
20260902045300 11 0 0.0 0.0 0.00 0.00 0.00 10 1022.3
20260902044842 11 0 0.0 0.0 0.00 0.00 0.00 10 1022.3
20260902044402 11 0 0.0 0.0 0.00 0.00 0.00 10 1022.2
20260902043927 11 0 0.0 0.0 0.00 0.00 0.00 10 1022.2
20260902043512 11 0 0.0 0.0 0.00 0.00 0.00 10 1022.2
20260902043049 11 0 0.0 0.0 0.00 0.00 0.00 10 1022.2
20260902042617 11 0 0.0 0.0 0.00 0.00 0.00 10 1022.2
20260902042127 11 0 0.0 0.0 0.00 0.00 0.00 10 1022.2
20260902041650 11 0 0.0 0.0 0.00 0.00 0.00 10 1022.2
20260902041215 11 0 0.0 0.0 0.00 0.00 0.00 10 1022.2
20260902040740 11 0 0.0 0.0 0.00 0.00 0.00 10 1022.3
20260902040312 11 0 0.0 0.0 0.00 0.00 0.00 10 1022.3
20260902035857 11 0 0.0 0.0 0.00 0.00 0.00 10 1022.3
20260902035422 11 0 0.0 0.0 0.00 0.00 0.00 10 1022.2
20260902034956 11 0 0.0 0.0 0.00 0.00 0.00 10 1022.3
20260902034552 11 0 0.0 0.0 0.00 0.00 0.00 10 1022.3
20260902034108 11 0 0.0 0.0 0.00 0.00 0.00 10 1022.3
20260902033629 11 0 0.0 0.0 0.00 0.00 0.00 10 1022.2
20260902033217 11 0 0.0 0.0 0.00 0.00 0.00 10 1022.2
20260902032737 11 0 0.0 0.0 0.00 0.00 0.00 10 1022.3
20260902032257 11 0 0.0 0.0 0.00 0.00 0.00 10 1022.3
20260902031837 11 0 0.0 0.0 0.00 0.00 0.00 10 1022.3
20260902031352 11 0 0.0 0.0 0.00 0.00 0.00 10 1022.2
20260902030932 11 0 0.0 0.0 0.00 0.00 0.00 10 1022.2
20260902030442 11 0 0.0 0.0 0.00 0.00 0.00 10 1022.2
20260902025952 11 0 0.0 0.0 0.00 0.00 0.00 10 1022.4
20260902025527 11 0 0.0 0.0 0.00 0.00 0.00 10 1022.4
20260902025106 11 0 0.0 0.0 0.00 0.00 0.00 10 1022.4
20260902024632 11 0 0.0 0.0 0.00 0.00 0.00 10 1022.6
20260902024202 10 0 0.0 0.0 0.00 0.00 0.00 10 1022.3
20260902023730 10 0 0.0 0.0 0.00 0.00 0.00 10 1022.3
20260902023257 10 0 0.0 0.0 0.00 0.00 0.00 10 1022.2
20260902022831 10 0 0.0 0.0 0.00 0.00 0.00 10 1022.2
20260902022405 10 0 0.0 0.0 0.00 0.00 0.00 10 1022.3
20260902021927 10 0 0.0 0.0 0.00 0.00 0.00 10 1022.2
20260902021501 10 0 0.0 0.0 0.00 0.00 0.00 10 1022.1
20260902021041 10 0 0.0 0.0 0.00 0.00 0.00 10 1022.1
20260902020600 10 0 0.0 0.0 0.00 0.00 0.00 10 1022.1
20260902020130 10 0 0.0 0.0 0.00 0.00 0.00 10 1022.1
20260902015657 10 0 0.0 0.0 0.00 0.00 0.00 10 1022.1
20260902015242 10 0 0.0 0.0 0.00 0.00 0.00 10 1022.1
20260902014832 10 0 0.0 0.0 0.00 0.00 0.00 10 1022.2
20260902014407 10 0 0.0 0.0 0.00 0.00 0.00 10 1022.2
20260902014001 10 0 0.0 0.0 0.00 0.00 0.00 10 1022.3
20260902013517 10 0 0.0 0.0 0.00 0.00 0.00 10 1022.3
20260902013057 10 0 0.0 0.0 0.00 0.00 0.00 10 1022.3
20260902012636 10 0 0.0 0.0 0.00 0.00 0.00 10 1022.3
20260902012207 10 0 0.0 0.0 0.00 0.00 0.00 10 1022.3
20260902011727 10 0 0.0 0.0 0.00 0.00 0.00 10 1022.4
20260902011316 10 0 0.0 0.0 0.00 0.00 0.00 10 1022.4
20260902010842 9 0 0.0 0.0 0.00 0.00 0.00 10 1022.4
20260902010356 9 0 0.0 0.0 0.00 0.00 0.00 10 1022.3
20260902005927 10 0 0.0 0.0 0.00 0.00 0.00 10 1022.3
20260902005456 10 0 0.0 0.0 0.00 0.00 0.00 10 1022.4
20260902005037 9 0 0.0 0.0 0.00 0.00 0.00 10 1022.4
20260902004612 9 0 0.0 0.0 0.00 0.00 0.00 10 1022.3
20260902004151 9 0 0.0 0.0 0.00 0.00 0.00 10 1022.4
20260902003726 9 0 0.0 0.0 0.00 0.00 0.00 10 1022.4
20260902003242 9 0 0.0 0.0 0.00 0.00 0.00 10 1022.5
20260902002812 9 0 0.0 0.0 0.00 0.00 0.00 10 1022.5
20260902002337 9 0 0.0 0.0 0.00 0.00 0.00 10 1022.5
20260902001917 9 0 0.0 0.0 0.00 0.00 0.00 10 1022.5
20260902001437 9 0 0.0 0.0 0.00 0.00 0.00 10 1022.5
20260902000959 9 0 0.0 0.0 0.00 0.00 0.00 10 1022.5
20260902000508 8 0 0.0 0.0 0.00 0.00 0.00 10 1022.5
20260902000037 9 0 0.0 0.0 0.00 0.00 0.00 10 1022.5
20260901235617 9 0 0.0 0.0 0.00 0.00 0.00 10 1022.5
20260901235152 9 0 0.0 0.0 0.00 0.00 0.00 10 1022.5
20260901234732 9 0 0.0 0.0 0.00 0.00 0.00 10 1022.5
20260901234257 10 0 0.0 0.0 0.00 0.00 0.00 10 1022.6
20260901233838 10 0 0.0 0.0 0.00 0.00 0.00 10 1022.6
20260901233422 10 0 0.0 0.0 0.00 0.00 0.00 10 1022.6
20260901232944 10 0 0.0 0.0 0.00 0.00 0.00 10 1022.6
20260901232522 10 0 0.0 0.0 0.00 0.00 0.00 10 1022.6
20260901232047 10 0 0.0 0.0 0.00 0.00 0.00 10 1022.6
20260901231610 9 0 0.0 0.0 0.00 0.00 0.00 10 1022.6
20260901231121 9 0 0.0 0.0 0.00 0.00 0.00 10 1022.6
20260901230652 9 0 0.0 0.0 0.00 0.00 0.00 10 1022.6
20260901230207 10 0 0.0 0.0 0.00 0.00 0.00 10 1022.6
20260901225723 9 0 0.0 0.0 0.00 0.00 0.00 10 1022.6
20260901225247 9 0 0.0 0.0 0.00 0.00 0.00 10 1022.6
20260901224817 9 0 0.0 0.0 0.00 0.00 0.00 10 1022.6
20260901224352 9 0 0.0 0.0 0.00 0.00 0.00 10 1022.6
20260901223912 10 0 0.0 0.0 0.00 0.00 0.00 10 1022.6
20260901223449 10 0 0.0 0.0 0.00 0.00 0.00 10 1022.6
20260901223022 10 0 0.0 0.0 0.00 0.00 0.00 10 1022.6
20260901222550 10 0 0.0 0.0 0.00 0.00 0.00 10 1022.6
20260901222106 10 0 0.0 0.0 0.00 0.00 0.00 10 1022.6
20260901221631 10 0 0.0 0.0 0.00 0.00 0.00 10 1022.6
20260901221142 10 0 0.0 0.0 0.00 0.00 0.00 10 1022.7
20260901220717 10 0 0.0 0.0 0.00 0.00 0.00 10 1022.7
20260901220237 10 0 0.0 0.0 0.00 0.00 0.00 10 1022.6
20260901215811 10 0 0.0 0.0 0.00 0.00 0.00 10 1022.7
20260901215337 10 0 0.0 0.0 0.00 0.00 0.00 10 1022.7
20260901214912 10 0 0.0 0.0 0.00 0.00 0.00 10 1022.7
20260901214437 10 0 0.0 0.0 0.00 0.00 0.00 10 1022.6
20260901214006 10 0 0.0 0.0 0.00 0.00 0.00 10 1022.5
20260901213547 10 0 0.0 0.0 0.00 0.00 0.00 10 1022.5
20260901213127 10 0 0.0 0.0 0.00 0.00 0.00 10 1022.6
20260901212657 10 0 0.0 0.0 0.00 0.00 0.00 10 1022.6
20260901212222 10 0 0.0 0.0 0.00 0.00 0.00 10 1022.6
20260901211814 10 0 0.0 0.0 0.00 0.00 0.00 10 1022.6
20260901211405 10 0 0.0 0.0 0.00 0.00 0.00 10 1022.6
20260901210932 10 0 0.0 0.0 0.00 0.00 0.00 10 1022.6
20260901210503 10 0 0.0 0.0 0.00 0.00 0.00 10 1022.6
20260901210032 10 0 0.0 0.0 0.00 0.00 0.00 10 1022.6
20260901205552 10 0 0.0 0.0 0.00 0.00 0.00 10 1022.6
20260901205112 10 0 0.0 0.0 0.00 0.00 0.00 10 1022.6
20260901204647 10 0 0.0 0.0 0.00 0.00 0.00 10 1022.5
20260901204212 10 0 0.0 0.0 0.00 0.00 0.00 10 1022.4
20260901203738 10 0 0.0 0.0 0.00 0.00 0.00 10 1022.4
20260901203332 10 0 0.0 0.0 0.00 0.00 0.00 10 1022.4
20260901202847 10 0 0.0 0.0 0.00 0.00 0.00 10 1022.3
20260901202425 11 0 0.0 0.0 0.00 0.00 0.00 10 1022.4
20260901201951 11 0 0.0 0.0 0.00 0.00 0.00 10 1022.3
20260901201532 11 0 0.0 0.0 0.00 0.00 0.00 10 1022.3
20260901201112 11 0 0.0 0.0 0.00 0.00 0.00 10 1022.2
20260901200637 11 0 0.0 0.0 0.00 0.00 0.00 10 1022.3
20260901200217 11 0 0.0 0.0 0.00 0.00 0.00 10 1022.3
20260901195736 11 0 0.0 0.0 0.00 0.00 0.00 10 1022.2
20260901195305 11 0 0.0 0.0 0.00 0.00 0.00 10 1022.2
20260901194811 11 0 0.0 0.0 0.00 0.00 0.00 10 1022.2
20260901194350 11 0 0.0 0.0 0.00 0.00 0.00 10 1022.2
20260901193921 11 0 0.0 0.0 0.00 0.00 0.00 10 1022.2
20260901193506 11 0 0.0 0.0 0.00 0.00 0.00 10 1022.2
20260901193047 11 0 0.0 0.0 0.00 0.00 0.00 10 1022.2
20260901192622 11 0 0.0 0.0 0.00 0.00 0.00 10 1022.2
20260901192145 11 0 0.0 0.0 0.00 0.00 0.00 10 1022.2
20260901191719 12 0 0.0 0.0 0.00 0.00 0.00 10 1022.2
20260901191257 12 0 0.0 0.0 0.00 0.00 0.00 10 1022.2
20260901190832 12 0 0.0 0.0 0.00 0.00 0.00 10 1022.2
20260901190355 12 0 0.0 0.0 0.00 0.00 0.00 10 1022.2
20260901185925 12 0 0.0 0.0 0.00 0.00 0.00 10 1022.1
20260901185437 12 0 0.0 0.0 0.00 0.00 0.00 10 1022.1
20260901185011 13 0 0.0 0.0 0.00 0.00 0.00 10 1022.1
20260901184602 13 0 0.0 0.0 0.00 0.00 0.00 10 1022.1
20260901184123 12 0 0.0 0.0 0.00 0.00 0.00 10 1022.0
20260901183716 12 0 0.0 0.0 0.00 0.00 0.00 10 1022.0
20260901183307 12 0 0.0 0.0 0.00 0.00 0.00 10 1022.0
20260901182837 13 0 0.0 0.0 0.00 0.00 0.00 10 1022.0
20260901182411 13 0 0.0 0.0 0.00 0.00 0.00 10 1021.9
20260901181935 13 0 0.0 0.0 0.00 0.00 0.00 10 1022.0
20260901181452 15 0 0.0 0.0 0.00 0.00 0.00 10 1021.8
20260901181013 14 0 0.0 0.0 0.00 0.00 0.00 10 1021.8
20260901180544 14 0 0.0 0.0 0.00 0.00 0.00 10 1021.8
20260901180122 14 0 0.0 0.0 0.00 0.00 0.00 10 1021.7
20260901175641 15 0 0.0 0.0 0.00 0.00 0.00 10 1021.6
20260901175212 15 0 0.0 0.0 0.00 0.00 0.00 10 1021.5
20260901174728 15 0 0.0 0.0 0.00 0.00 0.00 10 1021.5
20260901174252 16 0 0.0 0.0 0.00 0.00 0.00 10 1021.5
20260901173835 16 0 0.0 0.0 0.00 0.00 0.00 10 1021.4
20260901173417 16 0 0.0 0.0 0.00 0.00 0.00 10 1021.4
20260901172952 16 0 0.0 0.0 0.00 0.00 0.00 10 1021.4
20260901172521 17 0 0.0 0.0 0.00 0.00 0.00 10 1021.3
20260901172027 17 0 0.0 0.0 0.00 0.00 0.00 86 1021.3
20260901171602 18 0 0.0 0.0 0.00 0.00 0.00 81 1021.2
20260901171131 19 0 0.0 0.0 0.00 0.00 0.00 78 1021.2
20260901170656 21 0 0.0 0.0 0.00 0.00 0.00 77 1021.1
20260901170226 21 0 0.0 0.0 0.00 0.00 0.00 79 1021.2
20260901165744 21 0 0.0 0.0 0.00 0.00 0.00 77 1021.2
20260901165330 21 0 0.0 0.0 0.00 0.00 0.00 78 1021.1
20260901164855 21 0 0.0 0.0 0.00 0.00 0.00 81 1021.1
20260901164415 21 0 0.0 0.0 0.00 0.00 0.00 78 1021.1
20260901163937 20 0 0.0 0.0 0.00 0.00 0.00 82 1021.0
20260901163507 20 0 0.0 0.0 0.00 0.00 0.00 83 1021.0
20260901163047 19 0 0.0 0.0 0.00 0.00 0.00 79 1021.0
20260901162612 20 0 0.0 0.0 0.00 0.00 0.00 74 1021.1
20260901162146 21 0 0.0 0.0 0.00 0.00 0.00 68 1021.1
20260901161722 22 0 0.0 0.0 0.00 0.00 0.00 68 1021.1
20260901161252 22 0 0.0 0.0 0.00 0.00 0.00 66 1021.1
20260901160810 24 0 0.0 0.0 0.00 0.00 0.00 61 1021.2
20260901160355 24 0 0.0 0.0 0.00 0.00 0.00 62 1021.2
20260901155932 23 0 0.0 0.0 0.00 0.00 0.00 65 1021.1
20260901155446 23 0 0.0 0.0 0.00 0.00 0.00 64 1021.1
20260901155010 23 0 0.0 0.0 0.00 0.00 0.00 67 1021.0
20260901154539 23 0 0.0 0.0 0.00 0.00 0.00 65 1021.0
20260901154108 21 0 0.0 0.0 0.00 0.00 0.00 74 1021.1
20260901153637 20 0 0.0 0.0 0.00 0.00 0.00 77 1021.1
20260901153221 20 0 0.0 0.0 0.00 0.00 0.00 74 1021.0
20260901152742 21 0 0.0 0.0 0.00 0.00 0.00 71 1021.0
20260901152326 20 0 0.0 0.0 0.00 0.00 0.00 74 1021.0
20260901151902 20 0 0.0 0.0 0.00 0.00 0.00 70 1021.0
20260901151440 22 0 0.0 0.0 0.00 0.00 0.00 67 1021.1
20260901151010 22 0 0.0 0.0 0.00 0.00 0.00 62 1021.1
20260901150532 23 0 0.0 0.0 0.00 0.00 0.00 60 1021.0
20260901150107 23 0 0.0 0.0 0.00 0.00 0.00 58 1021.0
20260901145656 23 0 0.0 0.0 0.00 0.00 0.00 61 1021.0
20260901145232 23 0 0.0 0.0 0.00 0.00 0.00 63 1021.1
20260901144801 23 0 0.0 0.0 0.00 0.00 0.00 61 1021.1
20260901144336 24 0 0.0 0.0 0.00 0.00 0.00 60 1021.2
20260901143932 23 0 0.0 0.0 0.00 0.00 0.00 62 1021.0
20260901143512 23 0 0.0 0.0 0.00 0.00 0.00 63 1021.1
20260901143040 22 0 0.0 0.0 0.00 0.00 0.00 64 1021.1
20260901142619 22 0 0.0 0.0 0.00 0.00 0.00 63 1021.1
20260901142142 22 0 0.0 0.0 0.00 0.00 0.00 68 1021.1
20260901141712 23 0 0.0 0.0 0.00 0.00 0.00 65 1021.1
20260901141247 23 0 0.0 0.0 0.00 0.00 0.00 67 1021.1
20260901140822 24 0 0.0 0.0 0.00 0.00 0.00 64 1021.2
20260901140359 24 0 0.0 0.0 0.00 0.00 0.00 64 1021.3
20260901135924 23 0 0.0 0.0 0.00 0.00 0.00 67 1021.3
20260901135440 22 0 0.0 0.0 0.00 0.00 0.00 70 1021.2
20260901135007 22 0 0.0 0.0 0.00 0.00 0.00 71 1021.3
20260901134525 22 0 0.0 0.0 0.00 0.00 0.00 68 1021.3
20260901134047 23 0 0.0 0.0 0.00 0.00 0.00 68 1021.3
20260901133645 23 0 0.0 0.0 0.00 0.00 0.00 69 1021.3
20260901133222 23 0 0.0 0.0 0.00 0.00 0.00 67 1021.4
20260901132802 22 0 0.0 0.0 0.00 0.00 0.00 75 1021.4
20260901132331 21 0 0.0 0.0 0.00 0.00 0.00 80 1021.4
20260901131902 19 0 0.0 0.0 0.00 0.00 0.00 85 1021.4
20260901131432 20 0 0.0 0.0 0.00 0.00 0.00 83 1021.5
20260901131002 20 0 0.0 0.0 0.00 0.00 0.00 79 1021.4
20260901130537 21 0 0.0 0.0 0.00 0.00 0.00 75 1021.4
20260901125628 23 0 0.0 0.0 0.00 0.00 0.00 77 1021.3
20260901125148 21 0 0.0 0.0 0.00 0.00 0.00 82 1021.5
20260901124702 20 0 0.0 0.0 0.00 0.00 0.00 85 1021.4
20260901124240 20 0 0.0 0.0 0.00 0.00 0.00 80 1021.5
20260901123801 20 0 0.0 0.0 0.00 0.00 0.00 77 1021.4
20260901123347 21 0 0.0 0.0 0.00 0.00 0.00 72 1021.4
20260901122922 22 0 0.0 0.0 0.00 0.00 0.00 70 1021.4
20260901122506 22 0 0.0 0.0 0.00 0.00 0.00 70 1021.4
20260901122022 23 0 0.0 0.0 0.00 0.00 0.00 68 1021.4
20260901121607 22 0 0.0 0.0 0.00 0.00 0.00 73 1021.5
20260901121120 22 0 0.0 0.0 0.00 0.00 0.00 70 1021.5